sat.trackr.live / text

‹ back to catalog

STARLINK-2579

NORAD 48459 · 2021-040AH

PAYLOAD ACTIVE UNKNOWN

§ Identity

Operator
Country
US
Launch date
2021-05-09
Launch site
AFETR
Launch vehicle
Mass (kg)
RCS (m²)

Purposes: comms

External: N2YO · Heavens-Above · Gunter

§ Orbital elements

Epoch: 2026-09-04T03:50:18.668256Z

Period
94.01 min
Inclination
53.1598°
Eccentricity
0.0001241
Mean motion
15.31697075 rev/d
Perigee alt
469.9 km
Apogee alt
471.6 km
Semi-major
6,848.9 km
B*
-6.6750e-5
RAAN
67.6185°
Arg perigee
84.8168°
Mean anomaly
275.2974°
Rev number
29,404

§ Raw data

STARLINK-25791 48459U 21040AH  26247.15993829 -.00002436  00000+0 -66750-4 0  99982 48459  53.1598  67.6185 0001241  84.8168 275.2974 15.31697075294048

JSON: /api/v1/satellites/48459 · /tle

For live sub-satellite position, see the globe view (requires WebGL).

§ Visibility from observer

Set your observer location to see the next 7 days of passes ≥ 10°. The values pass through the URL so the page stays shareable.

No JS? Fill the form by hand. The geolocation button needs JavaScript.